Regional Weather Roundup
Issued by NWS State College, PA

Home | Current Version | Previous Version | Text Only | Print | Product List | Glossary On
Versions: 1 2 3 4 5 6 7 8 9 10 11 12 13 14 15 16 17 18 19 20 21 22 23 24 25 26 27 28 29 30 31 32 33 34 35 36 37 38 39 40 41 42 43 44 45 46 47 48 49 50
000
ASUS41 KCTP 280910
RWRCTP

REGIONAL WEATHER ROUNDUP
NATIONAL WEATHER SERVICE STATE COLLEGE PA
400 AM EST SUN DEC 28 2014

Note: "fair" indicates few or no clouds below 12,000 feet with no
significant weather and/or obstructions to visibility.

* = STATION THAT DOES NOT REPORT PRECIPITATION /E.G. RAIN...SNOW...ETC/
    THUNDER OR FOG.

PAZ002>004-007>009-013>016-020>023-029>032-281000-
WESTERN PENNSYLVANIA

CITY           SKY/WX    TMP DP  RH WIND       PRES   REMARKS
ERIE           LGT RAIN  37  34  89 W9        29.96F
MEADVILLE      LGT RAIN  38  35  89 W6        29.93S FOG
FRANKLIN*      CLOUDY    45  41  87 SW7       29.92S
NEW CASTLE     LGT RAIN  45  45 100 CALM      29.94S FOG
BEAVER COUNTY  NOT AVBL
BUTLER*        CLOUDY    45  43  93 S8        29.94F
PITTSBURGH INT LGT RAIN  46  45  96 SW8       29.94F FOG
PITTSBURGH     LGT RAIN  45  42  89 SW9       29.96F FOG
INDIANA*       CLOUDY    45  45 100 W9        29.98F FOG
LATROBE        LGT RAIN  46  45  93 SW9       29.98F
WASHINGTON CO* NOT AVBL
$$

PAZ004>006-010>012-017>019-024>028-033>037-041-042-045-046-049>053-281000-
CENTRAL PENNSYLVANIA

CITY           SKY/WX    TMP DP  RH WIND       PRES   REMARKS
BRADFORD       LGT RAIN  42  39  89 W6        29.87F FOG
DUBOIS         CLOUDY    43  42  97 SW10      29.90F
CLEARFIELD     LGT RAIN  44  43  96 S8        29.92F
JOHNSTOWN      CLOUDY    44  39  82 W12       29.92F
ALTOONA        CLOUDY    50  33  52 NW12      29.94R
STATE COLLEGE  CLOUDY    48  40  73 W17G28    29.93S
WILLIAMSPORT   CLOUDY    43  38  82 N5        29.91F
SELINSGROVE    CLOUDY    47  33  58 NW3       29.92F
FT INDIANTOWN  CLOUDY    39  37  93 N1        29.93F
CAPITAL CITY   LGT RAIN  43  37  79 E3        29.92F
HARRISBURG     CLOUDY    41  37  86 SE10      29.91F
YORK           LGT RAIN  44  36  73 NW5       29.93F
$$

PAZ038>040-043-044-047-048-054-055-060>062-067>071-281000-
EASTERN PENNSYLVANIA

CITY           SKY/WX    TMP DP  RH WIND       PRES   REMARKS
SCRANTON       CLOUDY    47  33  58 MISG      29.90F
MOUNT POCONO   CLOUDY    45  30  55 W10       29.88F
ALLENTOWN      CLOUDY    40  35  83 CALM      29.92F
QUAKERTOWN*    CLOUDY    41  36  81 SW3       29.93F
READING        LGT RAIN  45  36  70 S5        29.94S
LANCASTER      LGT RAIN  41  36  82 N3        29.94F
COATESVILLE    CLOUDY    45  39  81 CALM      29.94F
POTTSTOWN      CLOUDY    44  36  73 S3        29.95F
BLUE BELL      MOCLDY    45  37  76 CALM      29.92F
DOYLESTOWN     MOCLDY    42  37  82 S3        29.92F
WILLOW GROVE   NOT AVBL
NORTH PHILA    MOCLDY    44  36  73 S5        29.95F
PHILADELPHIA   CLOUDY    41  35  79 CALM      29.95F
$$


USA.gov is the U.S. government's official web portal to all federal, state and local government web resources and services.